{"data":{"norad_id":58169,"intl_designator":"2023-166V","name":"STARLINK-30771","alt_names":[],"object_type":"PAYLOAD","status":"ACTIVE","operator":null,"country":"US","launch_date":"2023-10-29","launch_site_code":"AFWTR","launch_vehicle":null,"mission":null,"orbit_class":"UNKNOWN","rcs_meters":null,"size_class":null,"mass_kg":null,"dimensions":null,"purposes":["comms"],"wikipedia_slug":null,"has_3d_model":false,"image_url":null,"decayed_at":null,"tle_current":{"epoch":"2026-05-24T16:05:03.482016Z","epoch_age_seconds":114278,"freshness":"FRESH","line1":"1 58169U 23166V   26144.67017919 -.00000323  00000+0  12223-5 0  9997","line2":"2 58169  53.1606 226.5942 0000905 102.9042 257.2060 15.30185227144818","mean_motion":15.30185227,"eccentricity":9.05e-5,"inclination_deg":53.1606,"raan_deg":226.5942,"arg_perigee_deg":102.9042,"mean_anomaly_deg":257.206,"bstar":1.2223e-6,"rev_number":14481,"period_min":94.106254235847,"perigee_km":474.63894693512,"apogee_km":475.87941164357,"semimajor_km":6853.3961792893,"source":"CELESTRAK","updated_at":"2026-05-25T13:38:18.565612Z"}}}